Regional Weather Roundup
Issued by NWS

Home | Current Version | Previous Version | Graphics & Text | Print | Product List | Glossary On
Versions: 1 2 3 4 5 6 7 8 9 10 11 12 13 14 15 16 17 18 19 20 21 22 23 24 25 26 27 28 29 30 31 32 33 34 35 36 37 38 39 40 41 42 43 44 45 46 47 48 49 50
000
ASUS43 KMPX 141001
RWRMN
WEATHER ROUNDUP FOR MINNESOTA
NATIONAL WEATHER SERVICE TWIN CITIES/CHANHASSEN MN
500 AM CDT MON JUL 14 2014


NOTE: "FAIR" INDICATES FEW OR NO CLOUDS BELOW 12,000 FEET WITH NO
SIGNIFICANT WEATHER AND/OR OBSTRUCTIONS TO VISIBILITY. N/A MEANS
CURRENT SKY AND/OR WEATHER CONDITIONS ARE NOT AVAILABLE.

MNZ060>063-068>070-141100-
   Twin Cities Metro

CITY           SKY/WX    TMP DP  RH WIND       PRES   REMARKS
TWIN CITIES    MOCLDY    61  50  67 NW6       29.89R
ST PAUL        MOCLDY    59  50  72 NW7       29.89R
CRYSTAL        CLOUDY    60  50  69 W5        29.88
BLAINE         CLOUDY    59  54  82 CALM      29.88F
LAKEVILLE      CLOUDY    54  52  94 CALM      29.90R
EDEN PRAIRIE   CLOUDY    62  51  67 NW7       29.89R
SOUTH ST PAUL  PTCLDY    61  49  65 NW3       29.89R
LAKE ELMO      FAIR      55  52  88 CALM      29.89S
$$
MNZ001>005-007-008-013>017-022>024-027-028-141100-
   Northwest Minnesota

CITY           SKY/WX    TMP DP  RH WIND       PRES   REMARKS
BEMIDJI        CLOUDY    46  45  93 NW15G22   29.91R
HALLOCK        MOCLDY    48  46  93 N15G22    30.02R
ROSEAU         CLOUDY    48  45  87 NW14G20   29.95R
WARROAD        CLOUDY    48  45  87 NW12      29.94R
THIEF RVR FALL CLOUDY    48  45  87 NW16      29.98R
CROOKSTON      CLOUDY    48  48 100 N15G24    30.02R
FOSSTON        CLOUDY    46  45  93 NW15G23   29.98R
MOORHEAD       PTCLDY    54  48  82 N18       30.01R
PARK RAPIDS    LGT RAIN  50  47  89 NW24G32   29.91R
$$
MNZ006-009>011-018-025>026-141100-
   North Central Minnesota

CITY           SKY/WX    TMP DP  RH WIND       PRES   REMARKS
BAUDETTE         N/A     52  49  89 N14       29.88R
FLAG ISLAND    CLOUDY    54  50  87 N26G33    29.90R
INTL FALLS     LGT RAIN  50  48  93 NW10      29.81R
WASKISH        DRIZZLE   50  48  93 W6        29.88R
BIG FORK       CLOUDY    48  46  93 W5        29.84S
LONGVILLE      CLOUDY    52  46  82 NW10G20   29.88R
GRAND RAPIDS   MOCLDY    48  45  87 NW15      29.85R
CRANE LAKE     DRIZZLE   48  46  93 SW5       29.80S
ORR            CLOUDY    48  46  93 W6        29.78S
COOK           DRIZZLE   48  46  93 W3        29.81S
$$
MNZ012-019>021-037-141100-
   Northeast Minnesota

CITY           SKY/WX    TMP DP  RH WIND       PRES   REMARKS
DULUTH         LGT RAIN  52  49  89 W8        29.82S
ELY            LGT RAIN  48  46  93 W3        29.79S
HIBBING        CLOUDY    50  45  83 NW9       29.82S
EVELETH        CLOUDY    50  46  87 W9        29.83R
DULUTH HARBOR  RAIN      55  52  88 W14       29.83R
TWO HARBORS    LGT RAIN  52  46  82 W6        29.79S
SILVER BAY     LGT RAIN  50  50 100 CALM      29.78R
GRAND MARAIS     N/A     45  44  97 CALM      29.78R
G MARAIS ARPRT RAIN      48  45  87 CALM      29.79S
$$
MNZ029>031-032-039>041-046>048-054>057-064-141100-
   West Central Minnesota

CITY           SKY/WX    TMP DP  RH WIND       PRES   REMARKS
FERGUS FALLS   PTCLDY    54  46  76 NW15      29.98S
WHEATON        CLOUDY    57  46  67 NW16G23   30.02R
MORRIS         PTCLDY    57  46  67 NW13      29.97R
ALEXANDRIA     CLOUDY    58  46  64 NW21G29   29.95R
ELBOW LAKE     CLOUDY    55  48  76 N17G24    29.97R
WADENA         CLEAR     50  45  81 NW14G20   29.93R
GLENWOOD       PTCLDY    55  48  76 NW13      29.95S
APPLETON       CLOUDY    61  48  63 NW10G16   29.98R
BENSON         PTCLDY    57  46  67 N10       29.97R
ORTONVILLE     PTCLDY    61  46  59 NW12G21   29.99R
MADISON        CLOUDY    61  52  72 NW9       29.99R
WILLMAR        CLOUDY    61  48  63 NW14      29.97R
$$
MNZ033>034-036-042>043-049>051-058-059-141100-
   Central Minnesota

CITY           SKY/WX    TMP DP  RH WIND       PRES   REMARKS
ST CLOUD       MOCLDY    60  50  69 W7        29.90R
SAUK CENTRE    CLOUDY    57  47  69 NW8       29.93S
PAYNESVILLE    PTCLDY    53  47  79 SW9       29.94R
AITKIN         CLOUDY    54  48  82 CALM      29.86R
PINE RIVER     MOCLDY    52  46  82 NW8       29.93R
BRAINERD       CLOUDY    59  47  64 NW14G22   29.90R
STAPLES        MOCLDY    52  48  87 NW12      29.92R
LONG PRAIRIE   CLOUDY    55  46  71 NW13G21   29.93R
LITTLE FALLS   MOCLDY    57  45  62 NW9G17    29.90S
LITCHFIELD     CLOUDY    63  48  59 NW13      29.93S
BUFFALO        CLOUDY    59  51  72 W9        29.91R
MAPLE LAKE     CLOUDY    59  52  79 W7        29.91S
$$
MNZ037-044-045-052-053-141100-
   East Central Minnesota

CITY           SKY/WX    TMP DP  RH WIND       PRES   REMARKS
PRINCETON      CLOUDY    57  52  82 W5        29.88F
MORA           MOCLDY    55  46  71 W6        29.88S
CAMBRIDGE      PTCLDY    59  48  67 SW3       29.86S
RUSH CITY      CLOUDY    57  50  79 CALM      29.86F
MOOSE LAKE     CLOUDY    52  48  87 W7        29.84R
HINCKLEY       CLOUDY    55  52  88 CALM      29.85S
CLOQUET        LGT RAIN  52  48  87 W8        29.84R
MCGREGOR       CLOUDY    52  48  87 W6        29.87R
$$
MNZ071>073-080-081-089-090-097-098-141100-
   Southwest Minnesota

CITY           SKY/WX    TMP DP  RH WIND       PRES   REMARKS
MONTEVIDEO     CLOUDY    57  54  88 NW5       29.98R
GRANITE FALLS  CLOUDY    55  52  88 W6        29.99R
CANBY          CLOUDY    56  51  80 NW7       30.01R
MARSHALL       CLOUDY    55  48  76 NW9       29.97S
REDWOOD FALLS  CLOUDY    58  51  78 W9        29.96R
OLIVIA         CLOUDY    57  50  77 NW8       29.95R
PIPESTONE      CLEAR     55  46  71 NW9       30.01R
WINDOM         CLEAR     52  48  87 W6        29.98R
WORTHINGTON    CLEAR     52  48  87 W5        30.00R
JACKSON        CLEAR     55  48  76 NW9       29.98R
TRACY          MOCLDY    56  50  78 W6        29.99R
SLAYTON        CLEAR     51  47  86 CALM      30.00S
$$
MNZ065>067-074>077-082>085-091>093-141100-
   South Central Minnesota

CITY           SKY/WX    TMP DP  RH WIND       PRES   REMARKS
MANKATO        CLEAR     55  46  71 W6        29.93R
NEW ULM        PTCLDY    55  52  88 W3        29.94R
ST JAMES       CLEAR     54  48  82 W5        29.97R
FAIRMONT       CLEAR     55  43  62 NW9       29.96R
GLENCOE        CLOUDY    61  50  65 W7        29.92R
FARIBAULT      CLEAR     57  48  72 W5        29.91S
OWATONNA       CLEAR     52  48  87 SW3       29.92R
WASECA         CLEAR     48  43  81 W5        29.94R
ALBERT LEA     CLEAR     55  50  82 W3        29.93R
$$
MNZ078>079-086>088-094>096-141100-
   Southeast Minnesota

CITY           SKY/WX    TMP DP  RH WIND       PRES   REMARKS
ROCHESTER      CLEAR     53  48  83 W8        29.91S
RED WING       CLEAR     52  52 100 CALM      29.88R
STANTON        CLEAR     54  49  84 CALM      29.89S
DODGE CENTER   CLEAR     52  48  87 W7        29.91S
WINONA         CLEAR     55  52  88 CALM      29.88S
AUSTIN         CLEAR     57  48  72 W5        29.91S
PRESTON        CLEAR     56  49  77 W9        29.91S
$$
ABBREVIATIONS USED IN REMARKS
   TC - TEMPERATURES IN CELSIUS
  WCI - WIND CHILL INDEX
   HX - HEAT INDEX
  VSB - VISIBILITY
$$



USA.gov is the U.S. government's official web portal to all federal, state and local government web resources and services.